Dubrovnik, Croatia

5:04 PM CEST on September 21, 2017 (GMT +0200)
Cilipi

Weather History for LDDU - February, 2013

Change the Weather History Date:

Wednesday, February 13, 2013

  Actual Average (LYTV) Record (LYTV)
Temperature  
Mean Temperature 46 °F -  
Max Temperature 54 °F 54 °F 62 °F (1998)
Min Temperature 39 °F 34 °F 23 °F (2008)
Degree Days  
Heating Degree Days 18    
Moisture  
Dew Point 42 °F    
Average Humidity 84    
Maximum Humidity 93    
Minimum Humidity 50    
Precipitation  
Precipitation 0.67 in - - ()
Sea Level Pressure  
Sea Level Pressure 29.71 in    
Wind  
Wind Speed 13 mph ()    
Max Wind Speed 31 mph    
Max Gust Speed 45 mph    
Visibility 6.2 miles    
Events Rain , Thunderstorm    
Averages and records for this station are not official NWS values.
T = Trace of Precipitation, MM = Missing Value Source: Averaged Metar Reports

Daily Weather History Graph

Daily Weather History Graph

Search for Another Location

Airport or City:

Trip Planner

Search our weather history database for the weather conditions in past years. The results will help you decide how hot, cold, wet, or windy it might be!

Date:

Astronomy

Feb. 13, 2013 Rise Set
Actual Time 6:46 AM CET 5:16 PM CET
Civil Twilight 6:17 AM CET 5:45 PM CET
Nautical Twilight 5:44 AM CET 6:18 PM CET
Astronomical Twilight 5:11 AM CET 6:51 PM CET
Moon 8:00 AM CET (2/13) 9:07 PM CET (2/13)
Length of Visible Light 11h 27m
Length of Day
10h 29m
Waxing Crescent, 12% of the Moon is Illuminated
Feb 13
Waxing Crescent
Feb 17
First Quarter
Feb 25
Full
Mar 4
Last Quarter
Mar 11
New

Hourly Weather History & Observations

Time (CET) Temp. Windchill Dew Point Humidity Pressure Visibility Wind Dir Wind Speed Gust Speed Precip Events Conditions
12:00 AM 42.8 °F 39.3 °F 41.0 °F 93% 29.74 in 4.3 mi NW 5.8 mph - N/A Rain , Thunderstorm Thunderstorms and Rain
12:30 AM 44.6 °F 40.7 °F 42.8 °F 93% 29.71 in 6.2 mi Variable 6.9 mph - N/A Rain Light Rain
1:00 AM 44 °F - 43 °F 93% 29.75 in 9 mi WSW 11.2 mph - -   Partly Cloudy
1:00 AM 44.6 °F 38.8 °F 42.8 °F 93% 29.71 in 6.2 mi West 11.5 mph - N/A   Scattered Clouds
1:30 AM 44.6 °F 43.1 °F 42.8 °F 93% 29.71 in 6.2 mi Variable 3.5 mph - N/A   Scattered Clouds
2:00 AM 44.6 °F 41.4 °F 42.8 °F 93% 29.71 in 6.2 mi NW 5.8 mph - N/A   Mostly Cloudy
2:30 AM 44.6 °F 39.7 °F 42.8 °F 93% 29.71 in 6.2 mi West 9.2 mph - N/A   Mostly Cloudy
3:00 AM 44.6 °F 39.2 °F 42.8 °F 93% 29.71 in 5.0 mi SSW 10.4 mph - N/A Rain Rain
3:30 AM 46.4 °F 39.5 °F 42.8 °F 87% 29.71 in 6.2 mi SSE 17.3 mph 28.8 mph N/A Rain Light Rain
4:00 AM 46 °F - 43 °F 87% 29.73 in 7 mi ESE 17.9 mph - -  
4:00 AM 46.4 °F 39.5 °F 42.8 °F 87% 29.71 in 6.2 mi ESE 17.3 mph - N/A Rain Light Rain
4:30 AM 46.4 °F 39.5 °F 42.8 °F 87% 29.68 in 6.2 mi ESE 17.3 mph - N/A Rain Light Rain
5:00 AM 44.6 °F 37.8 °F 42.8 °F 93% 29.68 in 6.2 mi East 15.0 mph - N/A Rain Light Rain
5:30 AM 46.4 °F 40.1 °F 42.8 °F 87% 29.65 in 6.2 mi ESE 15.0 mph - N/A Rain Light Rain
6:00 AM 46.4 °F 40.4 °F 42.8 °F 87% 29.65 in 6.2 mi East 13.8 mph - N/A   Mostly Cloudy
6:30 AM 44.6 °F 38.4 °F 42.8 °F 93% 29.62 in 6.2 mi East 12.7 mph - N/A   Scattered Clouds
7:00 AM 48 °F - 42 °F 72% 29.67 in 9 mi SE 22.4 mph - - Rain Light Rain
7:00 AM 48.2 °F - 41.0 °F 76% 29.65 in 6.2 mi ESE 21.9 mph - N/A Rain Light Rain
7:30 AM 46.4 °F 41.1 °F 41.0 °F 81% 29.65 in 6.2 mi East 11.5 mph - N/A Rain Light Rain
8:00 AM 46.4 °F 41.1 °F 41.0 °F 81% 29.65 in 6.2 mi East 11.5 mph - N/A   Mostly Cloudy
8:30 AM 48.2 °F - 39.2 °F 71% 29.62 in 6.2 mi East 11.5 mph - N/A   Scattered Clouds
9:00 AM 50.0 °F - 39.2 °F 66% 29.62 in 6.2 mi East 10.4 mph - N/A   Scattered Clouds
9:30 AM 51.8 °F - 37.4 °F 58% 29.62 in 6.2 mi SE 11.5 mph - N/A   Scattered Clouds
10:00 AM 53 °F - 40 °F 50% 29.65 in 19 mi SE 15.7 mph - -   Partly Cloudy
10:00 AM 53.6 °F - 37.4 °F 54% 29.62 in 6.2 mi SE 17.3 mph - N/A   Scattered Clouds
10:30 AM 51.8 °F - 41.0 °F 67% 29.65 in 6.2 mi ESE 17.3 mph - N/A   Mostly Cloudy
11:00 AM 51.8 °F - 39.2 °F 62% 29.65 in 6.2 mi ESE 17.3 mph - N/A   Mostly Cloudy
11:30 AM 48.2 °F - 39.2 °F 71% 29.65 in 6.2 mi ESE 25.3 mph 39.1 mph N/A Rain Light Rain
12:00 PM 48.2 °F - 41.0 °F 76% 29.65 in 6.2 mi ESE 20.7 mph - N/A Rain Light Rain
12:30 PM 46.4 °F 37.2 °F 41.0 °F 81% 29.65 in 6.2 mi ESE 29.9 mph 44.9 mph N/A Rain Light Rain
1:00 PM 46 °F - 42 °F 80% 29.66 in 5 mi ESE 29.1 mph - - Rain Light Rain
1:00 PM 46.4 °F 37.0 °F 41.0 °F 81% 29.65 in 5.0 mi ESE 31.1 mph 42.6 mph N/A Rain Light Rain
1:30 PM 44.6 °F 35.1 °F 41.0 °F 87% 29.62 in 5.0 mi East 27.6 mph 41.4 mph N/A Rain Rain
2:00 PM 44.6 °F 35.1 °F 41.0 °F 87% 29.62 in 5.0 mi East 27.6 mph - N/A Rain Rain
2:30 PM 46.4 °F 37.0 °F 41.0 °F 81% 29.62 in 5.0 mi ESE 31.1 mph - N/A Rain Rain
3:00 PM 44.6 °F 35.1 °F 42.8 °F 93% 29.65 in 3.1 mi ESE 27.6 mph - N/A Rain Rain
3:30 PM 44.6 °F 35.5 °F 42.8 °F 93% 29.65 in 2.5 mi East 25.3 mph - N/A Rain Rain
4:00 PM 46 °F - 43 °F 85% 29.70 in 9 mi ESE 22.4 mph - - Rain Light Rain
4:00 PM 46.4 °F 38.5 °F 42.8 °F 87% 29.68 in 6.2 mi ESE 21.9 mph - N/A Rain Light Rain
4:30 PM 46.4 °F 38.5 °F 42.8 °F 87% 29.68 in 6.2 mi ESE 21.9 mph - N/A Rain Light Rain
5:00 PM 46.4 °F 39.5 °F 42.8 °F 87% 29.71 in 6.2 mi SSE 17.3 mph - N/A   Mostly Cloudy
5:30 PM 46.4 °F 41.1 °F 42.8 °F 87% 29.71 in 6.2 mi SSE 11.5 mph - N/A   Mostly Cloudy
6:00 PM 46.4 °F 41.5 °F 42.8 °F 87% 29.74 in 6.2 mi SE 10.4 mph - N/A Rain Light Rain
6:30 PM 44.6 °F 37.8 °F 42.8 °F 93% 29.77 in 3.1 mi ESE 15.0 mph - N/A Rain Rain
7:00 PM 44 °F - 41 °F 84% 29.81 in 6 mi ESE 11.2 mph - - Rain Light Rain
7:00 PM 44.6 °F 38.8 °F 41.0 °F 87% 29.80 in 6.2 mi East 11.5 mph - N/A   Mostly Cloudy
7:30 PM 44.6 °F 37.4 °F 42.8 °F 93% 29.80 in 6.2 mi East 16.1 mph - N/A   Mostly Cloudy
8:00 PM 44.6 °F 39.2 °F 41.0 °F 87% 29.80 in 6.2 mi East 10.4 mph - N/A   Overcast
8:30 PM 42.8 °F 38.0 °F 41.0 °F 93% 29.83 in 6.2 mi East 8.1 mph - N/A   Overcast
9:00 PM 42.8 °F 36.6 °F 41.0 °F 93% 29.83 in 6.2 mi East 11.5 mph - N/A   Mostly Cloudy
9:30 PM 42.8 °F 36.6 °F 41.0 °F 93% 29.83 in 6.2 mi ENE 11.5 mph - N/A   Scattered Clouds
10:00 PM 44 °F - 41 °F 84% 29.88 in 6 mi East 11.2 mph - -   Overcast
10:00 PM 42.8 °F 36.6 °F 41.0 °F 93% 29.86 in 6.2 mi East 11.5 mph - N/A   Mostly Cloudy
10:30 PM 42.8 °F 37.0 °F 41.0 °F 93% 29.86 in 6.2 mi East 10.4 mph - N/A   Overcast
11:00 PM 44.6 °F 39.2 °F 39.2 °F 81% 29.89 in 6.2 mi East 10.4 mph - N/A   Overcast
11:30 PM 44.6 °F 39.2 °F 39.2 °F 81% 29.89 in 6.2 mi ENE 10.4 mph - N/A   Overcast